Weather History for Jasper, TX

Change the Weather History Date:

Wednesday, September 25, 2013

  Actual Average (KLFK) Record (KLFK)
Temperature  
Mean Temperature 78 °F 74 °F  
Max Temperature 92 °F 86 °F 101 °F (1931)
Min Temperature 63 °F 63 °F 44 °F (1989)
Degree Days  
Heating Degree Days 0 0  
Month to date heating degree days 0  
Since 1 July heating degree days 0  
Cooling Degree Days 12 10  
Month to date cooling degree days 330  
Year to date cooling degree days 2353  
Growing Degree Days 28 (Base 50)    
Moisture  
Dew Point 60 °F    
Average Humidity 67    
Maximum Humidity 97    
Minimum Humidity 18    
Precipitation  
Precipitation 0.00 in 0.13 in 2.16 in (1980)
Month to date precipitation 3.44  
Year to date precipitation 34.03  
Snow  
Snow 0.00 in - - ()
Month to date snowfall  
Since 1 July snowfall  
Since 1 September snowfall  
Snow Depth -    
Sea Level Pressure  
Sea Level Pressure 29.86 in    
Wind  
Wind Speed 0 mph (NNW)    
Max Wind Speed 7 mph    
Max Gust Speed -    
Visibility 8 miles    
Events      
T = Trace of Precipitation, MM = Missing Value Source: NWS Daily Summary

Daily Weather History Graph

Daily Weather History Graph

Search for Another Location

Airport:

Trip Planner

Search our weather history database for the weather conditions in past years. The results will help you decide how hot, cold, wet, or windy it might be!

Date:

Astronomy

Sep. 25, 2013 Rise Set
Actual Time 7:06 AM CDT 7:08 PM CDT
Civil Twilight 6:42 AM CDT 7:32 PM CDT
Nautical Twilight 6:14 AM CDT 8:00 PM CDT
Astronomical Twilight 5:45 AM CDT 8:28 PM CDT
Moon 11:35 PM CDT (9/25) 12:52 PM CDT (9/25)
Length of Visible Light 12h 50m
Length of Day
12h 02m
Waning Gibbous, 64% of the Moon is Illuminated
Sep 25
Waning Gibbous
Sep 26
Last Quarter
Oct 4
New
Oct 11
First Quarter
Oct 18
Full

Hourly Weather History & Observations

Time (CDT) Temp. Heat Index Dew Point Humidity Pressure Visibility Wind Dir Wind Speed Gust Speed Precip Events Conditions
12:15 AM 68.0 °F - 66.7 °F 96% 29.86 in 5.0 mi Calm Calm - N/A   Clear
12:35 AM 67.8 °F - 66.6 °F 96% 29.86 in 5.0 mi Calm Calm - N/A   Clear
12:55 AM 67.5 °F - 66.4 °F 96% 29.86 in 1.8 mi Calm Calm - N/A   Mist
1:15 AM 66.7 °F - 65.7 °F 96% 29.86 in 7.0 mi Calm Calm - N/A   Clear
1:35 AM 66.7 °F - 65.7 °F 96% 29.86 in 5.0 mi Calm Calm - N/A   Clear
1:55 AM 66.6 °F - 65.5 °F 96% 29.86 in 1.8 mi Calm Calm - N/A   Mist
2:35 AM 65.3 °F - 64.4 °F 97% 29.86 in 5.0 mi Calm Calm - N/A   Clear
2:55 AM 65.3 °F - 64.2 °F 96% 29.85 in 5.0 mi Calm Calm - N/A   Clear
3:15 AM 64.6 °F - 63.5 °F 96% 29.85 in 10.0 mi Calm Calm - N/A   Clear
3:35 AM 64.9 °F - 63.9 °F 96% 29.85 in 4.0 mi Calm Calm - N/A   Clear
3:55 AM 64.2 °F - 63.1 °F 96% 29.85 in 10.0 mi Calm Calm - N/A   Clear
4:35 AM 64.4 °F - 63.3 °F 96% 29.85 in 5.0 mi Calm Calm - N/A   Clear
4:55 AM 63.9 °F - 62.6 °F 96% 29.85 in 10.0 mi Calm Calm - N/A   Clear
5:15 AM 64.0 °F - 62.8 °F 96% 29.86 in 10.0 mi Calm Calm - N/A   Clear
5:35 AM 64.4 °F - 63.1 °F 96% 29.86 in 10.0 mi Calm Calm - N/A   Clear
5:55 AM 64.4 °F - 63.0 °F 95% 29.87 in 7.0 mi Calm Calm - N/A   Clear
6:15 AM 64.4 °F - 63.3 °F 96% 29.87 in 3.0 mi Calm Calm - N/A   Clear
6:35 AM 64.4 °F - 63.1 °F 96% 29.87 in 2.0 mi Calm Calm - N/A   Clear
6:55 AM 63.9 °F - 62.8 °F 96% 29.88 in 2.0 mi Calm Calm - N/A   Clear
7:15 AM 63.3 °F - 62.2 °F 96% 29.88 in 1.2 mi Calm Calm - N/A   Mist
7:35 AM 63.3 °F - 62.4 °F 97% 29.88 in 0.8 mi Calm Calm - N/A   Mist
7:55 AM 64.0 °F - 63.1 °F 97% 29.89 in 4.0 mi Calm Calm - N/A   Clear
8:15 AM 65.5 °F - 64.6 °F 97% 29.89 in 7.0 mi Calm Calm - N/A   Clear
8:35 AM 67.3 °F - 66.2 °F 96% 29.89 in 10.0 mi Calm Calm - N/A   Clear
8:55 AM 68.5 °F - 66.9 °F 95% 29.89 in 10.0 mi Calm Calm - N/A   Clear
9:15 AM 71.2 °F - 67.8 °F 89% 29.89 in 10.0 mi Calm Calm - N/A   Clear
9:35 AM 75.6 °F - 67.3 °F 75% 29.90 in 10.0 mi Calm Calm - N/A   Clear
9:55 AM 78.8 °F - 66.7 °F 66% 29.90 in 10.0 mi Calm Calm - N/A   Clear
10:15 AM 82.0 °F 83.9 °F 65.7 °F 57% 29.90 in 10.0 mi Calm Calm - N/A   Clear
10:35 AM 83.7 °F 84.5 °F 62.4 °F 49% 29.90 in 10.0 mi Calm Calm - N/A   Clear
10:55 AM 85.5 °F 85.0 °F 59.4 °F 41% 29.90 in 10.0 mi North 3.5 mph - N/A   Clear
11:15 AM 87.4 °F 85.7 °F 54.7 °F 33% 29.90 in 10.0 mi NNE 4.6 mph - N/A   Clear
11:35 AM 88.3 °F - 52.7 °F 29% 29.90 in 10.0 mi Calm Calm - N/A   Clear
11:55 AM 89.6 °F - 49.5 °F 25% 29.90 in 10.0 mi Calm Calm - N/A   Clear
12:15 PM 89.8 °F - 50.4 °F 26% 29.89 in 10.0 mi Calm Calm - N/A   Clear
12:35 PM 90.1 °F - 50.0 °F 25% 29.88 in 10.0 mi Calm Calm - N/A   Clear
1:15 PM 91.6 °F - 47.3 °F 22% 29.88 in 10.0 mi NW 3.5 mph - N/A   Clear
1:35 PM 91.6 °F - 47.3 °F 22% 29.87 in 10.0 mi Calm Calm - N/A   Clear
1:55 PM 91.8 °F - 49.1 °F 23% 29.86 in 10.0 mi NW 3.5 mph - N/A   Clear
2:15 PM 91.8 °F - 48.6 °F 23% 29.85 in 10.0 mi Calm Calm - N/A   Clear
2:35 PM 92.3 °F - 46.4 °F 21% 29.85 in 10.0 mi Calm Calm - N/A   Clear
2:55 PM 92.5 °F - 44.4 °F 19% 29.84 in 10.0 mi WNW 6.9 mph - N/A   Clear
3:15 PM 92.7 °F - 43.5 °F 18% 29.83 in 10.0 mi Calm Calm - N/A   Clear
3:55 PM 92.5 °F - 46.2 °F 20% 29.83 in 10.0 mi Calm Calm - N/A   Clear
4:15 PM 92.3 °F - 48.0 °F 22% 29.82 in 10.0 mi Calm Calm - N/A   Clear
4:35 PM 92.3 °F - 47.7 °F 22% 29.82 in 10.0 mi Calm Calm - N/A   Clear
4:55 PM 92.1 °F - 47.3 °F 21% 29.82 in 10.0 mi Calm Calm - N/A   Clear
5:15 PM 92.1 °F - 48.0 °F 22% 29.81 in 10.0 mi Calm Calm - N/A   Clear
5:35 PM 91.6 °F - 48.9 °F 23% 29.81 in 10.0 mi Calm Calm - N/A   Clear
5:55 PM 91.0 °F - 50.5 °F 25% 29.81 in 10.0 mi Calm Calm - N/A   Clear
6:15 PM 89.8 °F 87.5 °F 53.4 °F 29% 29.81 in 10.0 mi Calm Calm - N/A   Clear
6:35 PM 87.3 °F 86.7 °F 59.5 °F 39% 29.82 in 10.0 mi Calm Calm - N/A   Clear
6:55 PM 82.0 °F 83.3 °F 63.5 °F 53% 29.82 in 10.0 mi Calm Calm - N/A   Clear
7:15 PM 78.3 °F - 64.8 °F 63% 29.82 in 10.0 mi Calm Calm - N/A   Clear
7:35 PM 75.4 °F - 63.9 °F 67% 29.83 in 10.0 mi Calm Calm - N/A   Clear
7:55 PM 74.1 °F - 64.6 °F 72% 29.83 in 10.0 mi Calm Calm - N/A   Clear
8:15 PM 73.0 °F - 63.5 °F 72% 29.83 in 10.0 mi Calm Calm - N/A   Clear
8:35 PM 71.4 °F - 64.6 °F 79% 29.83 in 10.0 mi Calm Calm - N/A   Clear
8:55 PM 70.3 °F - 64.9 °F 83% 29.85 in 10.0 mi Calm Calm - N/A   Clear
9:15 PM 69.3 °F - 64.6 °F 85% 29.85 in 10.0 mi Calm Calm - N/A   Clear
9:35 PM 68.7 °F - 63.7 °F 84% 29.85 in 10.0 mi Calm Calm - N/A   Clear
9:55 PM 68.0 °F - 63.7 °F 86% 29.86 in 10.0 mi Calm Calm - N/A   Clear
10:15 PM 67.8 °F - 63.5 °F 86% 29.86 in 10.0 mi Calm Calm - N/A   Clear
10:35 PM 66.7 °F - 63.1 °F 88% 29.86 in 10.0 mi Calm Calm - N/A   Clear
10:55 PM 66.6 °F - 63.5 °F 90% 29.87 in 10.0 mi Calm Calm - N/A   Clear
11:15 PM 65.7 °F - 63.1 °F 92% 29.86 in 10.0 mi Calm Calm - N/A   Clear
11:35 PM 65.3 °F - 63.3 °F 93% 29.86 in 10.0 mi Calm Calm - N/A   Clear
11:55 PM 65.1 °F - 63.1 °F 93% 29.86 in 10.0 mi Calm Calm - N/A   Clear